Wind_Speed
6 5 4 4 4 4 3 3 4 4 6 6 6 7 7 9 10 10 9 9 8 8 7 7 7 7 7 7 6 7 6 6 6 6 6 7 7 8 8 8 8 8 8 9
7 6 6 6 6 4 4 6 6 5 5 6 7 7 6 7 8 10 9 9 8 8 8 7 7 7 7 7 7 6 6 6 6 6 7 8 8 9 9 9 9 9 9 10
9 9 8 7 7 6 6 7 7 7 7 7 8 8 7 7 8 9 10 9 8 8 8 8 8 8 7 7 7 7 7 7 7 8 8 8 9 9 9 10 10 10 11 11
11 11 9 8 8 6 7 8 9 8 9 8 9 10 10 8 7 9 10 10 10 10 8 8 8 8 8 7 8 8 7 7 7 8 8 8 9 9 10 11 11 12 12 11
11 11 10 10 10 9 10 9 9 9 8 7 9 10 11 10 8 8 10 11 11 11 9 8 8 8 8 7 8 8 8 8 8 8 9 9 9 10 10 11 12 13 13 12
13 13 12 12 11 11 9 8 8 10 8 7 8 10 11 11 9 9 11 12 11 10 9 9 9 9 8 8 8 8 8 9 9 9 9 9 10 11 11 12 12 13 13 13
13 13 13 13 11 10 9 8 9 9 8 8 9 10 12 14 12 12 13 12 11 10 10 10 9 10 9 9 9 9 9 9 10 10 10 10 11 11 11 12 13 13 13 13
13 13 14 14 13 12 11 10 11 10 9 10 11 11 11 13 13 12 13 12 11 11 12 10 9 10 10 10 10 10 10 10 10 10 11 11 12 12 12 13 14 15 15 15
15 14 15 16 15 14 13 12 12 12 11 11 11 14 12 10 10 11 11 12 11 11 12 12 10 10 11 11 11 11 11 11 11 11 11 12 12 13 13 14 15 16 16 17
16 16 15 15 14 14 14 13 12 12 12 12 11 12 12 10 11 12 12 11 12 13 14 13 12 12 12 13 12 12 12 12 12 12 12 13 13 14 14 15 16 16 17 17
18 17 16 16 15 14 15 15 15 14 14 13 11 11 11 13 14 15 15 15 13 13 13 14 13 13 14 14 14 13 13 13 13 14 14 14 14 14 15 15 16 17 18 18
20 18 17 16 16 16 17 16 15 15 15 14 13 13 13 13 14 15 14 14 14 14 15 15 15 14 14 14 14 14 15 15 15 15 15 15 15 15 15 16 17 18 19 19
21 19 16 16 16 17 16 17 17 16 15 16 15 15 16 17 16 15 15 16 17 17 17 16 15 16 15 15 15 16 16 16 16 16 16 16 16 16 16 17 18 19 20 20
22 21 19 17 17 17 17 17 18 18 17 17 17 18 19 20 18 17 18 20 20 18 18 17 17 16 16 16 17 17 17 17 17 17 17 17 17 18 18 19 20 20 20 19
25 23 23 22 19 18 18 18 19 19 20 19 18 20 22 20 19 21 22 22 21 20 19 19 19 18 18 18 18 18 18 18 18 18 19 19 19 20 20 20 21 21 21 21
26 25 24 24 21 20 19 18 19 20 21 21 21 22 23 23 22 22 23 23 22 20 19 20 20 21 20 20 20 20 20 20 20 21 21 21 21 21 21 21 22 22 22 22
25 26 25 24 22 20 20 19 19 20 21 21 22 25 23 24 24 25 24 23 22 23 21 22 22 22 22 22 22 22 22 22 22 22 22 22 22 22 22 22 23 23 23 23
26 28 27 26 23 22 22 21 21 21 23 24 24 25 25 25 27 26 25 24 24 24 23 24 23 23 23 23 23 23 23 23 23 23 23 23 23 23 23 24 24 24 24 24
26 28 26 26 24 22 23 24 22 22 25 25 25 25 27 27 28 28 26 26 26 25 26 25 25 24 24 24 23 23 24 24 24 24 24 24 24 24 25 25 26 26 26 26
30 29 28 27 26 25 25 26 25 24 27 27 26 26 27 27 27 29 29 27 26 26 27 27 27 27 26 26 25 25 25 25 25 26 26 25 26 26 27 28 27 27 28 28
31 30 30 29 28 28 28 28 27 28 29 29 28 28 29 29 28 29 29 29 28 28 28 28 27 27 27 27 27 27 27 27 27 27 27 27 28 28 29 29 28 29 29 29
30 30 30 30 29 30 30 29 30 31 31 31 31 31 31 31 31 31 30 30 30 30 30 29 29 28 28 28 28 28 28 28 29 29 29 29 29 29 29 30 30 30 31 31
30 30 31 31 32 33 30 30 31 32 32 32 34 34 34 34 33 33 33 31 31 31 30 30 30 30 30 29 29 29 29 30 30 30 30 30 30 30 30 30 30 31 32 32
32 32 33 33 34 34 32 33 33 32 32 32 33 35 36 35 34 33 33 34 33 32 32 31 30 30 30 29 30 30 31 31 31 30 30 30 30 30 30 31 31 32 32 32
34 34 35 36 35 36 35 35 35 34 33 33 34 34 34 34 34 33 32 33 33 32 31 32 31 31 30 30 31 31 31 31 32 31 31 31 31 31 31 32 32 32 32 32
33 33 36 37 36 35 36 35 36 36 35 34 34 34 34 34 35 35 34 33 34 33 33 33 33 32 31 30 31 32 31 32 32 32 31 31 32 32 31 31 32 32 32 32
Wind_Direction
188 193 207 202 213 193 203 270 274 296 320 328 319 321 328 331 335 334 341 340 344 349 355 357 360 3 2 6 10 13 14 10 8 7 8 7 4 4 4 2 357 355 355 353
200 221 222 222 221 218 237 269 286 297 296 299 304 302 310 320 325 329 334 336 339 342 342 347 353 354 354 356 1 3 4 3 1 1 0 360 360 359 357 355 351 349 348 346
212 225 228 234 234 230 237 253 257 266 274 291 298 306 316 309 319 325 328 331 333 335 334 340 350 351 348 348 351 351 349 352 353 352 354 355 353 350 349 347 345 343 342 342
221 225 229 231 236 241 250 253 256 261 269 274 291 297 303 303 309 318 323 324 326 330 329 336 343 342 341 342 343 346 345 344 343 343 345 346 344 341 341 340 338 337 340 340
225 231 233 240 237 242 246 249 257 262 256 257 275 280 286 300 297 298 311 314 319 321 328 332 332 329 329 332 336 339 341 341 338 336 335 335 336 337 337 337 337 339 337 337
230 234 238 240 238 242 244 251 265 269 266 257 265 275 284 285 287 291 297 302 306 310 315 322 323 323 322 325 326 327 329 333 336 335 335 333 331 331 332 332 332 333 335 333
240 239 241 240 235 237 249 255 266 272 272 276 270 267 273 278 276 279 282 286 292 297 304 312 315 315 317 319 323 323 323 325 329 330 330 330 329 329 328 328 328 330 331 331
238 243 246 249 240 234 239 243 252 264 269 275 275 266 261 269 271 279 284 285 287 291 296 299 304 307 310 313 317 320 320 318 320 323 322 324 325 327 327 326 325 325 324 323
230 235 244 251 248 242 240 235 245 258 258 268 271 272 265 263 266 275 278 282 283 280 287 294 300 309 307 308 311 314 314 313 314 317 317 318 319 320 320 322 323 323 323 320
233 234 237 247 247 246 245 249 245 243 251 258 262 277 275 267 265 270 270 274 276 278 282 288 299 303 305 305 308 311 312 312 311 313 315 314 314 315 315 317 318 319 321 320
231 240 240 243 245 247 248 246 245 243 247 251 260 271 276 267 268 272 275 272 274 273 277 286 291 294 299 300 302 305 307 307 308 307 309 308 310 312 313 315 317 319 319 319
232 236 239 242 245 249 246 243 244 248 254 255 259 261 263 266 269 268 269 272 279 281 285 287 290 294 296 297 299 301 303 304 305 304 305 304 305 308 310 311 313 315 315 317
234 234 234 242 242 246 243 246 246 246 253 260 261 265 262 261 261 265 269 272 276 280 283 284 287 289 291 294 296 299 299 300 301 301 301 302 302 303 305 307 310 312 314 314
233 233 230 236 236 240 241 244 248 245 247 253 257 257 259 263 262 264 266 269 274 278 279 281 284 286 288 293 294 295 296 298 299 300 301 300 300 301 302 305 308 310 312 313
234 235 235 235 237 239 245 246 250 251 250 250 254 256 257 260 262 261 263 268 271 273 275 277 279 284 287 288 290 291 294 296 297 298 300 299 299 300 302 304 305 306 307 308
237 237 238 241 241 240 241 245 249 249 251 252 255 256 260 263 262 263 268 271 272 272 272 274 277 280 283 285 287 288 290 292 293 294 296 297 298 299 300 301 303 305 307 307
239 242 242 243 243 243 244 242 246 250 254 254 255 259 262 260 261 265 267 269 270 274 272 274 275 276 280 283 286 288 289 289 291 292 293 293 295 295 297 300 302 303 304 304
241 242 244 246 246 245 243 245 250 252 254 256 257 261 262 260 263 265 265 265 269 271 273 274 274 277 281 282 286 288 289 289 291 292 292 292 293 294 296 298 300 303 303 303
241 244 244 245 247 248 246 246 247 251 253 256 259 260 260 261 264 265 266 267 267 272 274 274 275 276 277 281 284 287 289 290 292 291 293 293 292 293 294 296 298 298 299 299
242 243 242 244 245 243 246 250 249 250 255 256 257 259 261 262 264 266 269 270 269 271 273 274 276 278 280 281 284 287 287 289 291 291 292 291 291 291 292 294 295 296 298 299
244 245 245 245 245 246 248 252 252 250 255 259 261 261 262 264 265 268 272 273 272 273 273 274 276 277 278 280 282 285 286 287 289 289 291 290 289 289 291 293 293 295 298 299
243 246 246 246 246 247 249 252 252 251 254 257 260 261 263 265 268 270 271 271 270 270 270 272 274 275 276 278 280 283 284 286 288 288 289 290 288 288 289 292 294 295 297 298
244 244 245 245 248 249 250 252 254 254 256 259 260 262 265 266 268 269 270 269 269 269 270 271 273 275 276 277 279 281 282 284 286 287 288 289 288 289 290 292 293 294 295 296
243 243 244 244 245 249 252 253 256 259 260 261 262 265 267 268 268 268 268 268 268 270 270 270 271 274 276 276 278 280 280 281 282 285 287 287 288 288 289 291 292 294 295 295
243 243 245 246 249 251 250 253 257 260 262 264 266 267 267 267 268 268 268 267 266 267 267 269 271 272 273 274 276 279 278 278 280 282 285 286 287 287 289 291 292 293 294 296
243 246 247 249 251 253 252 254 257 260 261 264 265 266 266 266 267 267 267 267 266 267 269 267 269 270 271 273 276 277 278 279 279 281 283 285 286 288 289 292 292 293 293 295
Height
5917 5920 5920 5922 5923 5925 5927 5927 5928 5927 5926 5925 5925 5924 5922 5921 5919 5918 5916 5915 5913 5912 5911 5910 5909 5909 5908 5907 5906 5905 5905 5904 5904 5903 5902 5902 5901 5900 5899 5898 5897 5896 5895 5894
5917 5919 5921 5921 5922 5924 5926 5927 5927 5927 5926 5925 5924 5923 5922 5920 5920 5918 5917 5916 5915 5913 5911 5910 5910 5909 5908 5908 5907 5906 5905 5905 5904 5903 5903 5902 5901 5900 5899 5898 5897 5895 5894 5894
5916 5919 5919 5921 5922 5923 5925 5926 5926 5926 5924 5923 5924 5922 5921 5921 5919 5918 5917 5916 5915 5913 5911 5911 5910 5909 5909 5908 5907 5906 5906 5905 5905 5904 5903 5902 5901 5900 5899 5898 5897 5896 5894 5893
5914 5916 5917 5919 5920 5921 5923 5924 5924 5923 5922 5923 5923 5921 5920 5920 5918 5918 5917 5915 5914 5913 5911 5910 5910 5909 5909 5908 5907 5906 5905 5905 5904 5904 5903 5902 5901 5900 5899 5898 5896 5895 5893 5892
5913 5914 5916 5917 5918 5920 5920 5921 5921 5920 5920 5921 5922 5921 5919 5918 5918 5917 5916 5915 5913 5912 5911 5910 5909 5909 5908 5908 5907 5906 5905 5905 5904 5903 5902 5901 5900 5899 5898 5897 5895 5894 5893 5891
5910 5912 5913 5915 5916 5917 5918 5919 5918 5918 5918 5919 5921 5921 5919 5917 5916 5916 5915 5914 5913 5911 5910 5909 5909 5908 5908 5907 5906 5906 5905 5904 5903 5902 5901 5900 5899 5898 5897 5896 5895 5893 5891 5890
5908 5910 5911 5912 5913 5915 5916 5917 5917 5917 5917 5918 5919 5918 5918 5916 5915 5914 5913 5912 5911 5910 5909 5908 5908 5907 5907 5906 5906 5905 5904 5903 5903 5902 5900 5899 5898 5897 5896 5895 5893 5892 5890 5889
5907 5909 5909 5909 5911 5912 5913 5915 5916 5917 5917 5917 5916 5915 5914 5913 5912 5912 5912 5911 5910 5909 5908 5907 5906 5906 5905 5905 5905 5904 5903 5902 5901 5900 5899 5898 5897 5896 5895 5893 5892 5890 5888 5887
5903 5906 5907 5906 5907 5909 5910 5911 5913 5914 5914 5914 5914 5912 5911 5909 5908 5909 5909 5908 5908 5907 5906 5905 5904 5904 5904 5904 5903 5902 5901 5901 5900 5899 5898 5896 5895 5894 5893 5892 5890 5888 5886 5885
5899 5901 5902 5903 5904 5906 5907 5908 5910 5911 5911 5911 5911 5909 5908 5907 5907 5906 5906 5905 5905 5904 5903 5903 5902 5902 5902 5901 5901 5900 5900 5899 5898 5897 5896 5895 5894 5893 5891 5890 5888 5886 5884 5882
5895 5897 5899 5901 5902 5903 5905 5905 5905 5906 5907 5907 5908 5908 5905 5905 5904 5904 5903 5902 5901 5900 5900 5901 5901 5901 5900 5899 5898 5898 5897 5897 5896 5895 5894 5893 5891 5890 5889 5887 5885 5883 5881 5879
5891 5893 5895 5897 5898 5899 5901 5902 5903 5904 5903 5904 5904 5906 5902 5902 5901 5900 5899 5898 5898 5898 5899 5898 5898 5897 5897 5897 5896 5895 5895 5894 5893 5892 5891 5890 5889 5887 5886 5884 5882 5880 5878 5876
5886 5888 5890 5893 5896 5895 5896 5897 5899 5900 5901 5901 5902 5902 5899 5898 5898 5897 5896 5895 5895 5895 5896 5895 5894 5894 5894 5894 5893 5892 5891 5890 5890 5889 5888 5887 5885 5884 5883 5881 5879 5877 5874 5872
5880 5882 5886 5888 5889 5890 5890 5892 5894 5895 5896 5897 5897 5897 5896 5895 5893 5893 5892 5892 5892 5892 5892 5892 5891 5890 5890 5890 5890 5889 5888 5887 5886 5885 5884 5883 5882 5880 5879 5877 5875 5873 5870 5868
5874 5877 5879 5880 5883 5885 5886 5888 5889 5890 5891 5892 5892 5891 5890 5889 5889 5888 5887 5888 5888 5888 5888 5888 5888 5887 5886 5886 5886 5885 5884 5883 5882 5881 5880 5878 5877 5876 5874 5873 5871 5869 5867 5865
5868 5871 5872 5874 5876 5878 5880 5882 5883 5885 5885 5886 5886 5885 5884 5884 5884 5883 5882 5882 5883 5883 5882 5883 5883 5883 5882 5882 5881 5880 5879 5878 5877 5876 5875 5874 5872 5871 5870 5868 5866 5864 5862 5860
5862 5864 5866 5868 5870 5872 5874 5877 5878 5879 5879 5880 5880 5880 5879 5878 5877 5877 5877 5877 5877 5878 5878 5878 5878 5877 5877 5876 5876 5875 5874 5873 5872 5871 5870 5869 5867 5866 5864 5863 5861 5859 5857 5855
5855 5857 5860 5862 5864 5865 5870 5870 5871 5872 5872 5873 5873 5873 5872 5872 5871 5871 5871 5871 5872 5872 5872 5872 5872 5871 5871 5870 5870 5869 5868 5867 5866 5865 5864 5863 5862 5860 5859 5857 5855 5853 5851 5849
5849 5851 5853 5855 5857 5859 5862 5862 5864 5866 5866 5866 5866 5865 5865 5865 5865 5864 5864 5865 5866 5866 5866 5866 5866 5864 5865 5864 5864 5863 5862 5861 5860 5859 5858 5856 5856 5855 5853 5851 5849 5847 5845 5843
5841 5844 5847 5849 5851 5853 5855 5855 5856 5859 5858 5858 5859 5859 5859 5859 5859 5858 5857 5858 5859 5859 5859 5859 5859 5859 5858 5858 5858 5857 5857 5856 5855 5853 5852 5850 5849 5848 5846 5844 5843 5841 5839 5837
5833 5836 5838 5841 5842 5844 5845 5846 5849 5852 5851 5850 5851 5852 5851 5851 5851 5851 5851 5852 5852 5851 5852 5852 5853 5853 5852 5852 5851 5851 5850 5849 5848 5846 5845 5844 5842 5841 5839 5837 5835 5834 5832 5830
5826 5828 5830 5833 5835 5837 5836 5838 5840 5840 5841 5842 5842 5842 5843 5843 5843 5843 5844 5844 5844 5844 5845 5845 5845 5845 5845 5844 5844 5843 5843 5841 5840 5839 5838 5836 5834 5833 5831 5829 5828 5826 5824 5822
5818 5820 5822 5824 5827 5827 5828 5829 5830 5831 5832 5834 5834 5834 5835 5835 5836 5836 5836 5836 5835 5835 5836 5837 5837 5837 5836 5836 5836 5835 5835 5833 5832 5831 5830 5828 5826 5825 5823 5822 5820 5818 5816 5813
5808 5810 5813 5814 5815 5817 5819 5820 5821 5823 5824 5824 5824 5825 5826 5826 5826 5827 5827 5827 5827 5827 5827 5828 5828 5828 5828 5827 5827 5827 5826 5825 5824 5823 5822 5820 5819 5817 5815 5814 5812 5810 5808 5805
5799 5801 5803 5805 5807 5809 5810 5811 5813 5814 5815 5816 5816 5817 5817 5816 5817 5818 5818 5818 5818 5818 5818 5819 5819 5819 5819 5819 5819 5818 5817 5816 5815 5814 5813 5812 5810 5809 5807 5805 5803 5801 5799 5796
5790 5792 5795 5796 5797 5799 5801 5802 5803 5805 5806 5806 5807 5807 5807 5807 5807 5808 5808 5808 5808 5808 5809 5809 5810 5810 5811 5810 5810 5809 5808 5807 5806 5805 5804 5803 5802 5800 5799 5797 5795 5792 5791 5788